Presure
248 164 240 233 256 243 254 267 250 266 164 195 122 231 228 218 194 189 181 173 179 189 197 202 203 192 193 193 186 186 185 175 178 185 176 175 188 175 176 185 192 194 200 205
240 236 231 233 245 255 242 267 284 206 230 180 231 222 223 191 186 181 170 176 181 195 196 190 188 196 192 187 188 187 186 182 186 186 188 174 176 183 190 187 192 203 137 258
233 225 235 232 232 231 255 237 189 232 218 193 226 227 196 187 181 175 176 172 183 189 198 186 175 185 176 181 180 182 185 167 171 174 177 183 188 187 191 194 202 224 241 237
235 234 227 236 201 248 206 237 259 217 200 237 229 215 185 178 174 175 181 165 169 184 185 181 180 182 181 179 180 162 173 180 179 182 185 184 175 191 179 195 246 219 152 215
161 249 209 234 229 185 241 257 234 219 242 227 188 181 179 175 171 170 168 171 182 183 180 184 182 183 185 179 173 178 177 183 184 182 189 191 148 127 202 243 133 215 253 252
181 219 213 253 247 232 265 250 215 236 233 185 178 177 174 170 169 171 172 177 175 183 183 181 180 176 178 181 180 183 180 182 184 191 193 197 179 246 229 229 218 242 148 151
228 258 224 207 218 241 208 240 238 233 205 176 174 170 169 173 176 178 186 181 176 176 175 180 184 182 181 185 177 183 186 192 193 176 195 212 237 241 214 252 140 224 239 210
225 223 241 251 247 208 243 261 249 218 182 179 178 178 181 180 178 179 180 175 179 182 182 181 183 182 173 189 169 187 193 194 188 205 244 225 217 253 246 243 246 208 197 201
255 252 223 233 208 210 249 242 182 182 178 183 183 180 178 181 185 182 182 181 181 184 185 182 182 173 188 193 193 196 191 197 247 226 226 216 139 259 251 200 215 192 200 192
240 241 242 255 255 267 227 201 192 189 186 187 185 183 184 185 185 177 185 183 180 139 133 138 187 192 190 201 195 213 247 235 225 205 229 253 255 211 212 190 196 197 201 217
239 271 259 247 248 246 258 201 196 191 187 183 182 181 181 180 180 181 148 190 191 191 191 189 198 202 199 231 249 231 221 179 194 243 257 224 214 200 189 201 194 211 218 219
208 267 267 276 281 289 274 221 194 190 190 191 191 191 191 191 189 186 189 191 197 202 204 198 247 249 241 228 212 161 134 133 252 236 210 197 190 193 198 200 213 214 239 290
249 200 201 204 270 280 285 284 257 212 203 202 202 203 205 207 206 204 202 267 251 257 246 239 232 223 208 221 136 132 138 245 206 190 195 187 194 196 197 210 232 241 292 290
235 234 240 140 250 219 214 213 249 262 257 259 259 261 261 246 245 246 236 235 234 229 217 206 232 250 136 135 134 234 206 189 193 194 186 196 198 197 211 232 285 290 282 288
195 195 195 199 203 212 218 224 230 232 232 232 232 232 233 213 228 213 212 204 213 238 248 253 201 134 128 172 207 199 190 196 186 191 201 193 216 233 233 276 286 283 282 291
193 195 199 198 194 191 192 195 197 198 203 206 204 203 203 203 203 232 243 240 246 254 263 134 129 133 210 206 190 200 187 187 195 192 195 215 229 237 281 288 286 280 288 299
202 202 202 201 232 231 231 232 234 234 234 234 235 235 238 245 241 241 244 264 255 252 133 131 176 209 189 199 176 191 198 182 194 201 212 233 237 289 289 285 291 292 299 461
229 227 228 225 223 226 228 228 229 228 233 237 239 241 216 257 261 259 272 226 124 138 156 201 186 196 194 191 195 196 190 205 210 222 235 242 290 280 289 297 301 305 460 470
221 223 225 223 224 224 230 236 235 245 263 300 303 261 343 349 327 231 192 133 179 181 196 196 197 196 193 184 194 199 207 221 221 232 248 282 284 293 303 305 460 460 457 424
221 222 225 225 224 227 232 240 260 296 276 278 274 266 215 205 186 126 198 203 151 194 183 196 194 193 183 194 205 209 214 223 235 250 280 281 290 303 315 484 414 439 462 460
227 225 225 226 233 230 246 277 276 250 222 213 208 202 191 191 203 201 199 196 136 193 195 191 184 192 198 199 213 206 228 240 250 278 288 296 306 335 442 400 433 550 463 489
226 234 231 233 247 227 161 161 164 169 183 200 197 191 194 197 199 195 191 194 193 191 186 190 208 195 200 218 211 233 237 248 276 286 289 330 349 487 460 432 522 498 482 450
234 240 250 269 273 169 193 198 196 196 198 201 198 196 199 198 194 194 190 190 187 192 200 207 193 207 220 216 229 238 250 276 272 329 335 352 486 458 431 509 491 475 477 436
167 175 258 225 204 187 194 200 201 198 200 201 201 195 194 167 183 189 194 191 193 202 202 204 213 209 223 229 238 266 274 278 333 317 345 487 457 431 503 485 463 468 491 367
238 217 208 201 200 198 201 204 147 202 197 198 193 181 182 190 198 197 192 193 205 206 214 217 206 223 237 241 271 277 303 330 309 349 487 457 432 501 484 450 478 494 372 334
210 206 205 206 206 205 203 200 197 192 190 185 187 194 200 201 197 194 200 206 216 197 216 211 223 239 260 276 280 303 326 330 348 487 461 435 482 493 428 357 525 375 336 309
207 200 191 188 186 187 188 189 192 195 198 198 198 195 193 196 214 214 212 210 208 202 227 226 241 268 277 284 296 317 342 351 488 461 435 399 491 411 350 601 379 337 310 299
Wind_Speed
52 22 41 37 30 40 34 27 53 57 39 49 26 68 66 62 54 51 45 45 40 39 44 44 46 46 47 48 49 50 51 52 55 60 58 60 72 68 73 82 88 92 97 99
55 52 39 41 32 25 38 15 16 48 65 48 63 60 61 51 46 42 45 42 38 41 43 44 45 47 48 48 50 52 54 56 61 64 68 66 71 77 84 85 90 98 62 96
52 40 54 44 48 32 40 47 30 68 63 49 61 61 50 45 42 44 42 43 39 40 43 44 45 45 46 47 50 53 57 54 57 62 68 74 80 82 88 92 97 101 98 99
43 45 40 55 34 51 35 60 48 55 45 64 62 55 45 44 43 41 40 47 45 42 44 45 45 46 47 51 53 52 55 60 65 70 76 77 75 87 80 90 98 92 71 100
28 47 26 39 42 25 51 50 58 47 60 59 42 42 42 42 43 46 46 45 42 44 44 45 46 48 51 53 53 57 61 67 70 71 79 84 60 53 97 95 61 98 95 95
29 20 36 48 45 34 41 53 37 54 58 38 40 40 40 45 46 45 45 43 43 43 45 47 48 50 53 56 58 63 64 68 73 80 85 89 75 93 96 97 99 91 70 72
10 39 26 25 25 28 23 36 48 50 47 45 45 46 45 43 43 43 43 43 44 46 47 50 53 53 55 61 57 66 70 76 80 74 85 94 92 91 95 90 67 85 88 92
13 8 21 29 30 24 28 32 45 43 42 42 42 41 41 41 42 43 45 46 47 49 50 51 54 56 51 66 58 70 76 79 74 92 88 91 92 87 87 85 84 85 89 95
24 26 16 20 34 33 29 39 42 41 39 38 39 41 42 43 45 46 47 48 48 51 53 53 55 53 64 70 73 79 73 82 84 86 88 92 61 84 82 80 86 87 94 95
20 20 22 24 28 29 35 39 38 39 40 41 42 43 43 44 45 43 48 49 48 34 36 37 62 66 67 79 74 83 80 80 83 82 76 80 78 78 83 82 90 93 98 107
17 15 19 23 25 29 29 39 40 38 39 39 39 40 41 42 44 46 38 54 56 58 59 60 71 75 73 76 75 76 79 68 64 74 73 74 78 81 82 91 90 102 106 110
23 17 18 16 15 17 24 44 37 37 38 40 43 45 46 47 47 46 50 55 63 68 69 65 64 68 71 73 75 55 49 54 69 68 73 77 77 85 90 94 103 106 117 117
16 23 24 25 16 17 16 18 32 47 45 47 50 52 55 57 59 60 60 44 58 55 61 64 67 69 72 60 46 49 56 63 68 71 76 76 85 89 94 105 113 120 114 113
16 17 16 23 20 28 29 30 26 27 34 35 35 35 37 47 49 49 55 57 59 60 62 66 64 61 42 46 50 58 63 67 72 76 77 86 89 94 102 109 110 108 110 113
28 27 28 29 28 28 27 27 29 32 35 38 40 43 45 48 50 52 55 57 59 56 57 57 47 41 44 52 58 62 67 72 73 79 87 88 98 104 109 112 105 106 108 112
33 33 33 34 35 37 38 39 40 42 43 44 45 47 50 51 53 51 50 50 51 51 51 36 40 47 54 57 62 67 69 74 82 84 90 97 103 110 113 106 105 106 109 113
40 40 40 41 29 30 32 33 35 38 42 45 47 48 49 49 48 48 47 49 45 43 37 41 48 52 59 63 60 71 77 73 85 91 96 104 109 112 109 107 109 109 112 69
32 32 31 30 32 33 34 35 38 40 44 48 49 49 43 50 49 46 47 37 31 38 44 51 56 59 63 68 73 78 79 88 92 98 106 112 112 110 110 112 112 112 67 57
33 33 33 33 33 34 36 40 39 44 51 45 36 31 33 31 31 34 38 34 44 49 53 57 60 64 69 68 78 82 87 94 97 106 114 114 114 115 115 115 75 67 58 54
36 36 36 34 34 36 38 42 50 39 33 28 24 22 30 34 36 33 45 45 44 54 56 61 65 69 69 78 84 88 92 97 106 113 115 112 112 114 116 70 79 60 50 42
38 37 36 36 40 39 48 45 35 27 25 28 31 34 38 41 41 43 47 51 47 58 62 66 66 74 79 81 90 88 100 107 111 116 113 114 113 113 79 82 61 40 40 27
35 40 38 40 46 37 24 25 26 28 32 36 39 41 43 44 46 49 53 57 60 64 66 70 79 78 83 91 90 101 105 112 116 114 114 111 107 67 64 60 38 33 26 9
39 43 47 47 42 28 33 36 37 39 40 41 42 45 48 50 52 55 58 62 65 70 75 80 76 86 93 92 99 105 114 113 112 106 106 105 66 63 59 41 33 24 14 3
32 32 33 34 38 39 40 41 42 43 44 45 48 49 52 45 55 61 65 67 72 77 79 83 88 88 96 100 108 113 112 112 103 106 104 64 62 58 44 34 22 12 2 14
34 38 39 41 43 44 44 46 37 47 48 50 52 53 55 61 66 68 70 73 80 81 87 91 85 97 108 110 111 111 107 102 104 103 62 60 56 44 34 20 14 1 17 16
44 45 45 46 47 48 49 50 52 53 54 56 58 62 66 69 70 71 77 82 86 74 91 86 96 110 112 107 108 105 98 103 103 62 59 54 45 35 16 10 2 19 18 9
49 50 52 52 53 54 56 57 58 59 62 64 66 67 68 72 81 83 85 84 84 77 101 101 112 106 105 105 102 99 103 103 60 58 53 46 36 13 9 14 19 19 11 6
Wind_Direction
113 126 134 148 125 162 150 140 173 176 215 190 226 191 195 201 204 210 217 228 234 243 247 248 251 255 260 263 268 273 277 281 285 288 291 295 296 299 298 300 302 302 304 305
125 133 135 153 124 151 176 144 141 193 180 201 191 195 198 203 209 213 226 229 235 244 248 253 257 260 264 270 273 278 282 285 286 290 294 298 298 299 301 301 302 304 297 304
146 164 148 152 161 172 170 175 204 182 184 194 193 195 198 203 209 219 226 233 239 248 251 254 260 264 269 274 278 281 283 287 293 295 296 297 300 301 301 302 304 305 304 305
171 169 182 175 177 180 184 181 187 183 191 190 193 195 201 211 221 226 231 242 246 251 255 260 265 271 275 276 279 282 289 294 296 296 299 300 299 301 302 303 303 303 301 307
174 177 165 193 183 173 190 187 185 188 190 192 192 199 206 215 224 232 240 244 248 253 260 265 269 274 279 281 284 291 294 294 295 297 298 299 300 301 303 302 303 305 307 307
171 154 182 197 198 192 201 188 192 191 193 191 200 206 214 224 232 237 244 250 257 263 267 270 274 275 280 286 290 291 291 295 297 298 299 301 297 300 302 304 305 305 301 306
97 197 180 165 175 199 186 199 197 196 197 204 210 219 226 230 236 244 249 253 256 261 265 270 275 281 286 287 289 291 294 296 298 299 301 301 300 302 304 305 303 307 308 309
170 163 214 221 218 186 212 217 203 199 202 208 216 224 230 235 240 246 252 258 262 267 272 278 282 282 286 288 291 294 296 297 298 300 297 300 302 303 305 306 307 308 310 311
221 226 192 207 184 195 226 211 197 205 215 217 222 228 235 240 245 249 254 260 267 273 277 280 283 286 290 292 293 295 297 297 295 298 300 303 305 305 306 308 308 311 311 314
207 213 217 222 224 232 218 199 203 210 217 224 231 236 243 249 255 263 264 269 274 275 276 279 286 288 291 290 293 294 292 295 297 301 301 303 304 306 307 310 310 311 312 311
221 217 222 220 219 220 225 211 221 222 228 233 239 246 252 256 260 264 270 271 275 279 283 285 286 286 288 288 290 294 295 297 299 302 304 304 305 307 311 310 313 311 311 311
213 208 215 209 199 192 219 223 230 236 240 244 248 252 257 262 266 271 274 275 276 278 280 284 284 285 289 292 293 292 298 302 301 303 304 305 309 310 310 312 311 312 312 318
214 228 227 229 229 229 230 232 242 238 243 247 251 255 260 264 267 270 271 275 278 279 281 284 288 290 291 294 296 300 300 301 301 304 305 311 309 311 314 312 313 314 320 319
226 231 237 256 237 241 245 246 239 242 249 255 259 262 266 267 269 272 273 276 279 282 286 286 290 293 293 297 300 300 300 302 303 306 311 309 311 313 312 313 319 320 318 318
237 239 242 244 244 246 249 253 254 255 257 258 260 263 265 270 271 275 278 281 284 287 289 291 295 296 299 298 299 300 302 303 309 309 308 313 310 314 313 318 320 320 319 321
244 247 250 251 250 251 253 257 258 260 264 266 268 269 270 273 276 278 281 284 288 291 292 293 297 295 299 300 300 300 307 309 307 312 313 310 315 316 319 321 322 320 320 322
252 254 256 259 258 261 264 266 266 265 266 267 269 271 272 275 275 279 285 291 288 288 292 295 297 298 300 299 306 305 305 312 311 310 312 316 316 319 321 322 322 321 322 323
246 249 252 255 259 263 267 270 270 270 271 271 272 275 277 279 280 282 287 283 295 298 295 293 298 297 300 303 305 307 311 308 311 314 317 318 319 322 321 322 322 321 324 324
249 253 257 259 262 266 270 276 278 285 288 288 287 284 286 283 283 280 281 297 293 296 292 295 300 302 304 309 308 308 310 313 315 317 319 320 321 320 321 322 324 324 324 324
249 254 258 261 266 273 277 285 289 289 285 285 289 288 273 275 278 292 283 288 297 294 299 301 303 305 311 307 308 310 313 316 319 320 320 323 322 320 320 324 323 323 324 325
251 256 262 267 270 273 280 286 276 271 273 266 267 271 276 280 283 286 290 293 298 300 302 303 307 305 307 309 310 314 317 318 320 320 321 321 320 319 324 323 323 326 325 324
255 259 262 266 271 272 255 261 265 270 272 270 273 278 282 286 290 292 295 298 300 301 304 305 303 307 309 309 314 317 318 320 320 320 321 317 319 325 325 323 329 325 328 323
258 262 265 270 271 263 260 265 268 270 274 278 282 285 289 291 293 295 297 299 301 302 301 302 307 307 309 313 316 318 319 319 321 315 316 320 326 326 324 329 326 327 329 150
253 258 258 254 257 266 266 267 271 275 279 283 286 287 290 293 297 297 297 300 300 300 303 305 307 310 312 316 317 317 317 317 316 319 321 326 326 325 329 328 330 334 358 147
250 253 255 258 261 265 269 272 276 278 281 284 287 291 294 293 293 294 298 299 300 304 305 306 311 312 314 315 315 315 316 318 320 321 326 326 325 327 328 330 333 38 146 134
255 257 259 262 265 268 272 274 277 281 285 286 288 288 290 291 293 295 298 299 302 302 306 310 312 312 314 313 313 315 317 320 322 325 326 325 327 328 329 330 341 145 134 144
261 261 263 266 269 272 274 277 279 281 283 285 286 287 290 293 296 297 299 301 303 308 307 311 310 311 311 312 315 315 323 323 324 325 324 325 328 325 319 331 150 138 150 144